Content
SEND FEEDBACK

Daily
Averages
Monthly
Summary
United States of America

VIRGIL, SOUTH DAKOTA


Home > North America > United States > South Dakota
Elevation: 1280 feet     Latitude: 44 23N     Longitude: 098 13W

WEATHER
 
SELECT A DAY
Number of Records: 202,004;   Date Range: 1/1/95 - 9/16/14
 
SHARE

PRINT THIS DATA

[ ← Previous Day ]
WEATHER ALMANAC - JANUARY 31, 2013
[ Next Day → ]
[ °C ]   °F
Weather ElementAverageHighLow
Temperature-8.3 °F-5.1 °F (3:55 pm)-9.9 °F (8:55 am)
Dewpoint-15.8 °F-14.1 °F (4:55 am)-18.4 °F (10:36 am)
Humidity69.8 %77 % (6:29 am)62 % (3:55 pm)
Barometer30.32 in30.48 in (7:55 pm)30.11 in (1:55 am)
Wind Speed19.1 mph29.9 mph (7:28 am)
Wind Gust35.7 mph (7:28 am)
Weather ElementAverage
Visibility7 mi
Wind DirectionNW (312.7 °)

Weather ElementTotal
Precipitation---
Heating Degree Days72.5 (Base 65)
Averaged from 33 records on January 31, 2013
WEATHER CONDITIONS BREAKOUT
WIND DIRECTION BREAKOUT
WEATHER BY HOUR - JANUARY 31, 2013
[ °C ]   °F
Local TimeTemperatureDewpointHumidityBarometerVisibilityWind DirectionWind SpeedGust SpeedPrecipitationEventsConditions
1:55 AM-6.0 °F-15.0 °F65 %30.11 in10.0 miNNW (330°)17.3 mphScattered Clouds
2:55 AM-7.1 °F-15.0 °F68 %30.14 in10.0 miNNW (330°)17.3 mphClear
3:55 AM-7.1 °F-15.0 °F68 %30.15 in8.0 miNNW (340°)19.6 mph25.3 mphOvercast
4:55 AM-8.0 °F-14.1 °F75 %30.19 in4.0 miNNW (330°)17.3 mph27.6 mph0.00 inSnowLight Snow
5:55 AM-8.0 °F-14.1 °F75 %30.22 in4.0 miNNW (330°)24.2 mph28.8 mph0.00 inOvercast
6:06 AM-7.6 °F-14.8 °F71 %30.11 in2.0 miNNW (330°)26.5 mph33.4 mph0.00 inOvercast
6:29 AM-9.4 °F-14.8 °F77 %30.12 in3.0 miNNW (340°)18.4 mph32.2 mphOvercast
6:55 AM-9.0 °F-15.0 °F75 %30.25 in3.0 miNNW (330°)24.2 mph33.4 mph0.00 inHaze
7:28 AM-9.4 °F-16.6 °F71 %30.16 in3.0 miNNW (330°)29.9 mph35.7 mph0.00 inHaze
7:55 AM-9.0 °F-16.1 °F71 %30.30 in3.0 miNNW (330°)23.0 mph28.8 mph0.00 inSnowLight Snow
8:03 AM-9.4 °F-16.6 °F71 %30.19 in2.0 miNNW (330°)24.2 mph0.00 inSnowLight Snow
8:19 AM-9.4 °F-16.6 °F71 %30.20 in4.0 miNNW (330°)23.0 mph32.2 mph0.00 inHaze
8:40 AM-9.4 °F-16.6 °F71 %30.22 in6.0 miNNW (340°)24.2 mph32.2 mph0.00 inHaze
8:55 AM-9.9 °F-17.0 °F71 %30.35 in5.0 miNNW (330°)27.6 mph32.2 mph0.00 inHaze
9:28 AM-9.4 °F-16.6 °F71 %30.26 in5.0 miNNW (330°)23.0 mph32.2 mphHaze
9:55 AM-9.0 °F-17.0 °F68 %30.40 in3.0 miNNW (330°)24.2 mph29.9 mphHaze
10:09 AM-9.4 °F-16.6 °F71 %30.28 in2.5 miNNW (330°)25.3 mph31.1 mphHaze
10:36 AM-9.4 °F-18.4 °F65 %30.29 in6.0 miNNW (330°)26.5 mph33.4 mphHaze
10:55 AM-9.0 °F-17.0 °F68 %30.43 in9.0 miNNW (330°)25.3 mphMostly Cloudy
11:55 AM-9.0 °F-17.0 °F68 %30.46 in10.0 miNW (320°)24.2 mph29.9 mphOvercast
12:55 PM-7.1 °F-16.1 °F65 %30.45 in10.0 miNW (310°)23.0 mphScattered Clouds
1:04 PM-7.6 °F-16.6 °F65 %30.34 in9.0 miNW (310°)21.9 mphMostly Cloudy
1:55 PM-7.1 °F-15.0 °F68 %30.45 in10.0 miNW (310°)21.9 mphMostly Cloudy
2:55 PM-6.0 °F-15.0 °F65 %30.45 in9.0 miNW (310°)23.0 mphMostly Cloudy
3:55 PM-5.1 °F-15.0 °F62 %30.45 in10.0 miNW (320°)21.9 mphScattered Clouds
4:55 PM-5.1 °F-14.1 °F65 %30.46 in10.0 miNW (320°)16.1 mphClear
5:55 PM-7.1 °F-15.0 °F68 %30.46 in10.0 miNW (320°)6.9 mphClear
6:55 PM-9.0 °F-16.1 °F71 %30.47 in10.0 miWSW (250°)4.6 mphClear
7:55 PM-9.0 °F-16.1 °F71 %30.48 in10.0 miWest (280°)6.9 mphClear
8:55 PM-9.9 °F-16.1 °F74 %30.48 in10.0 miSW (220°)4.6 mphClear
9:55 PM-9.0 °F-15.0 °F75 %30.47 in10.0 miWSW (250°)5.8 mphClear
10:55 PM-9.0 °F-16.1 °F71 %30.46 in10.0 miWSW (240°)4.6 mphClear
11:55 PM-9.9 °F-16.1 °F74 %30.45 in10.0 miWest (260°)3.5 mphClear
Hourly data recorded from KHON, located miles away from Virgil, South Dakota







STORIES FROM OUR PARTNERS